Regional Weather Roundup
Issued by NWS

Home | Current Version | Previous Version | Graphics & Text | Print | Product List | Glossary On
Versions: 1 2 3 4 5 6 7 8 9 10 11 12 13 14 15 16 17 18 19 20 21 22 23 24 25 26 27 28 29 30 31 32 33 34 35 36 37 38 39 40 41 42 43 44 45 46 47 48 49 50
644
ASUS45 KBOI 261410
RWRID

IDAHO REGIONAL WEATHER ROUNDUP
NATIONAL WEATHER SERVICE BOISE ID
800 AM MDT TUE JUL 26 2016

NOTE: "FAIR" INDICATES FEW OR NO CLOUDS BELOW 12000 FEET
WITH NO SIGNIFICANT WEATHER AND/OR OBSTRUCTIONS TO VISIBILITY

IDZ012-014-261500-
SOUTHWEST IDAHO


CITY           SKY/WX    TMP DP  RH WIND       PRES   REMARKS
BOISE          SUNNY     72  35  25 S7        29.99R
CALDWELL       NOT AVBL
MOUNTAIN HOME  SUNNY     65  33  30 E3        30.00R
$$

IDZ016-017-261500-
SOUTHCENTRAL IDAHO


CITY           SKY/WX    TMP DP  RH WIND       PRES   REMARKS
BURLEY         SUNNY     58  48  69 CALM      30.08R
JEROME         SUNNY     64  37  36 E8        30.08R
TWIN FALLS     SUNNY     69  29  22 SW8       30.08R
$$

IDZ019>023-261500-
SOUTHEAST IDAHO


CITY           SKY/WX    TMP DP  RH WIND       PRES   REMARKS
IDAHO FALLS    SUNNY     57  45  64 N6        30.15R
POCATELLO      SUNNY     62  34  35 N6        30.12R
REXBURG        SUNNY     55  43  63 NE6       30.17R
$$

IDZ006-010-011-018-031-032-261500-
CENTRAL IDAHO MOUNTAINS


CITY           SKY/WX    TMP DP  RH WIND       PRES   REMARKS
MCCALL         MOSUNNY   55  47  74 W3        30.15S
HAILEY         SUNNY     59  34  38 NW10      30.20R
STANLEY          N/A     45  32  60 CALM      30.31
SALMON         SUNNY     55  43  62 CALM      30.15S
CHALLIS        SUNNY     59  37  44 SE3       30.20S
$$

IDZ002-004-006-007-026-261500-
NORTHERN IDAHO


CITY           SKY/WX    TMP DP  RH WIND       PRES   REMARKS
LEWISTON       MOSUNNY   69  52  54 CALM      30.01R
LOWELL           N/A     59  53  80 CALM      30.07S
COEUR D`ALENE  MOSUNNY   66  55  68 E3        30.01R
MULLAN PASS    SUNNY     65  42  43 CALM      30.22S
$$




USA.gov is the U.S. government's official web portal to all federal, state and local government web resources and services.